This demonstration page uses our WeatherBlox Daily Observations layout. Learn more.

40.92945, -100.16068

Hourly Observations for January 18, 2018

Temp ( °F °C ) Dew Point ( °F °C ) Humidity (%) Winds ( mph kmh ) Pressure ( in mb ) Visibility ( mi km ) Precip ( " mm )
12:15 am 00:15 Clear 17 -8.4 13 -10.8 83 83 Calm 30.36 1028 10 16.0934 0 0
12:35 am 00:35 Clear 17 -8.6 11 -11.4 80 80 NW 5 7 30.36 1028 10 16.0934 0 0
12:55 am 00:55 Clear 16 -8.9 12 -11.1 84 84 NNW 6 9 30.36 1028 10 16.0934 0 0
1:15 am 01:15 Clear 15 -9.2 11 -11.5 84 84 NNW 5 7 30.36 1028 10 16.0934 0 0
1:35 am 01:35 Clear 14 -10 10 -12.1 85 85 WNW 5 7 30.39 1029 10 16.0934 0 0
1:55 am 01:55 Clear 15 -9.5 11 -11.7 84 84 WNW 7 11 30.33 1027 10 16.0934 0 0
2:15 am 02:15 Clear 14 -10 10 -12.2 84 84 NW 7 11 30.36 1028 10 16.0934 0 0
2:35 am 02:35 Clear 15 -9.4 11 -11.4 86 86 WNW 8 13 30.33 1027 10 16.0934 0 0
2:55 am 02:55 Clear 16 -8.8 12 -11.1 84 84 WNW 6 9 30.33 1027 10 16.0934 0 0
3:15 am 03:15 Clear 15 -9.2 11 -11.5 84 84 WNW 5 7 30.33 1027 10 16.0934 0 0
3:35 am 03:35 Clear 16 -9.1 12 -11.3 84 84 W 5 7 30.3 1026 10 16.0934 0 0
3:55 am 03:55 Clear 16 -8.9 12 -11.1 84 84 WNW 7 11 30.3 1026 10 16.0934 0 0
4:15 am 04:15 Clear 16 -8.9 12 -11 85 85 NW 8 13 30.3 1026 10 16.0934 0 0
4:35 am 04:35 Clear 16 -9.1 11 -11.5 83 83 NW 3 6 30.27 1025 10 16.0934 0 0
4:55 am 04:55 Clear 15 -9.5 11 -11.7 84 84 W 6 9 30.27 1025 10 16.0934 0 0
5:15 am 05:15 Clear 15 -9.7 11 -11.8 85 85 NW 5 7 30.27 1025 10 16.0934 0 0
5:35 am 05:35 Clear 15 -9.4 11 -11.5 85 85 WNW 10 17 30.27 1025 10 16.0934 0 0
5:55 am 05:55 Clear 17 -8.5 13 -10.8 84 84 WNW 5 7 30.24 1024 10 16.0934 0 0
6:15 am 06:15 Clear 15 -9.5 11 -11.7 84 84 W 6 9 30.24 1024 10 16.0934 0 0
6:35 am 06:35 Clear 15 -9.3 11 -11.5 84 84 WNW 6 9 30.24 1024 10 16.0934 0 0
6:55 am 06:55 Clear 14 -9.9 10 -12.2 83 83 WNW 7 11 30.24 1024 10 16.0934 0 0
7:15 am 07:15 Clear 15 -9.4 12 -11.3 86 86 WNW 8 13 30.24 1024 10 16.0934 0 0
7:35 am 07:35 Clear 15 -9.3 12 -11.2 86 86 Calm 30.24 1024 10 16.0934 0 0
7:55 am 07:55 Clear 15 -9.5 11 -11.4 86 86 WNW 5 7 30.24 1024 10 16.0934 0 0
8:15 am 08:15 Sunny 15 -9.6 11 -11.5 86 86 NW 6 9 30.24 1024 10 16.0934 0 0
8:35 am 08:35 Sunny 17 -8.6 13 -10.5 86 86 WNW 5 7 30.24 1024 10 16.0934 0 0
8:55 am 08:55 Sunny 20 -6.6 16 -8.8 85 85 W 5 7 30.21 1023 10 16.0934 0 0
9:15 am 09:15 Sunny 22 -5.3 18 -7.9 82 82 WNW 3 6 30.21 1023 10 16.0934 0 0
9:35 am 09:35 Sunny 25 -4 20 -6.9 80 80 Calm 30.18 1022 10 16.0934 0 0
9:55 am 09:55 Sunny 28 -2.3 22 -5.4 80 80 W 3 6 30.18 1022 10 16.0934 0 0
10:15 am 10:15 Sunny 29 -1.5 23 -5.1 77 77 WNW 5 7 30.15 1021 10 16.0934 0 0
10:35 am 10:35 Sunny 31 -0.6 24 -4.4 76 76 Calm 30.15 1021 10 16.0934 0 0
10:55 am 10:55 Sunny 32 0 24 -4.4 73 73 NW 3 6 30.15 1021 10 16.0934 0 0
11:15 am 11:15 Sunny 33 0.6 25 -4 72 72 Calm 30.15 1021 10 16.0934 0 0
11:35 am 11:35 Sunny 35 1.5 25 -3.7 69 69 Calm 30.12 1020 10 16.0934 0 0
11:55 am 11:55 Sunny 37 2.7 27 -2.9 67 67 Calm 30.09 1019 10 16.0934 0 0
12:15 pm 12:15 Sunny 38 3.6 28 -2.3 66 66 Calm 30.09 1019 10 16.0934 0 0
12:35 pm 12:35 Sunny 45 7.1 29 -1.6 54 54 WSW 8 13 30 1016 10 16.0934 0 0
12:55 pm 12:55 Sunny 47 8.1 29 -1.8 50 50 WSW 9 15 30 1016 10 16.0934 0 0
1:15 pm 13:15 Sunny 48 8.9 29 -1.6 48 48 W 6 9 30 1016 10 16.0934 0 0
1:35 pm 13:35 Sunny 45 7.4 30 -1 56 56 WNW 3 6 29.97 1015 10 16.0934 0 0
1:55 pm 13:55 Sunny 45 7 31 -0.7 58 58 Calm 29.97 1015 10 16.0934 0 0
2:15 pm 14:15 Sunny 45 7.1 31 -0.6 58 58 Calm 29.94 1014 10 16.0934 0 0
2:35 pm 14:35 Sunny 45 7.3 31 -0.4 58 58 Calm 29.94 1014 10 16.0934 0 0
2:55 pm 14:55 Sunny 46 7.5 32 0 59 59 Calm 29.94 1014 10 16.0934 0 0
3:15 pm 15:15 Sunny 45 7.2 32 0.2 61 61 Calm 29.94 1014 10 16.0934 0 0
3:35 pm 15:35 Sunny 45 7.2 33 0.6 63 63 Calm 29.94 1014 10 16.0934 0 0
3:55 pm 15:55 Sunny 45 7.1 33 0.4 63 63 Calm 29.94 1014 10 16.0934 0 0
4:15 pm 16:15 Sunny 45 7 32 0 61 61 Calm 29.94 1014 10 16.0934 0 0
4:35 pm 16:35 Sunny 45 7 32 0 61 61 Calm 29.94 1014 10 16.0934 0 0
4:55 pm 16:55 Sunny 43 6.2 32 0 65 65 Calm 29.94 1014 10 16.0934 0 0
5:15 pm 17:15 Sunny 44 6.5 31 -0.4 62 62 Calm 29.94 1014 10 16.0934 0 0
5:35 pm 17:35 Sunny 39 4.1 32 -0.2 74 74 Calm 29.97 1015 10 16.0934 0 0
5:55 pm 17:55 Clear 40 4.4 31 -0.4 71 71 Calm 29.97 1015 10 16.0934 0 0
6:15 pm 18:15 Clear 38 3.5 31 -0.7 74 74 SW 3 6 29.97 1015 10 16.0934 0 0
6:35 pm 18:35 Clear 37 2.6 30 -1.3 76 76 SSW 5 7 30 1016 10 16.0934 0 0
6:55 pm 18:55 Clear 37 2.7 29 -1.8 73 73 S 6 9 30 1016 10 16.0934 0 0
7:15 pm 19:15 Clear 38 3.4 28 -2 68 68 SSW 5 7 29.97 1015 10 16.0934 0 0
7:35 pm 19:35 Clear 37 2.9 28 -2.3 69 69 S 3 6 29.97 1015 10 16.0934 0 0
7:55 pm 19:55 Clear 37 2.5 28 -2.5 70 70 Calm 30 1016 10 16.0934 0 0
8:15 pm 20:15 Clear 33 0.3 28 -2.3 83 83 Calm 30 1016 10 16.0934 0 0
8:35 pm 20:35 Clear 32 0.2 27 -2.7 81 81 NW 3 6 29.97 1015 10 16.0934 0 0
8:55 pm 20:55 Clear 32 -0.1 27 -2.6 83 83 N 5 7 29.97 1015 10 16.0934 0 0
9:15 pm 21:15 Clear 32 -0.2 27 -2.6 84 84 NW 5 7 30.03 1017 10 16.0934 0 0
9:35 pm 21:35 Clear 31 -0.5 27 -3 83 83 Calm 30 1016 10 16.0934 0 0
9:55 pm 21:55 Clear 34 1.1 28 -2.5 77 77 Calm 29.97 1015 10 16.0934 0 0
10:15 pm 22:15 Clear 32 -0.1 26 -3.1 80 80 Calm 29.97 1015 10 16.0934 0 0
10:35 pm 22:35 Clear 31 -0.7 26 -3.1 84 84 Calm 29.94 1014 10 16.0934 0 0
10:55 pm 22:55 Clear 32 0 27 -2.6 83 83 Calm 29.94 1014 10 16.0934 0 0
11:15 pm 23:15 Clear 30 -1.1 26 -3.5 84 84 Calm 29.97 1015 10 16.0934 0 0
11:35 pm 23:35 Clear 29 -1.4 26 -3.6 85 85 Calm 29.97 1015 10 16.0934 0 0
11:55 pm 23:55 Clear 30 -1.3 26 -3.3 86 86 Calm 29.94 1014 10 16.0934 0 0

Powered by AerisWeather